Retour au catalogue

NOAA 16 DEB

ActifPO
NORAD 41668·DEBRIS·🇺🇸 United States

Lancé Sep 21, 2000 depuis Vandenberg Space Force Base

Loading…

Prochains Passages (prochaines 24 heures)

TLE

FraisSource: Space-Track

Époque: Sep 12, 2026, 10:39 UTC

1 41668U 00055PH  26255.44418676  .00009339  00000-0  14232-2 0  9993
2 41668  98.9396 129.9913 0023602 146.3732 213.8977 14.73965767544762

Suivez NOAA 16 DEB en temps réel avec AllMySat

Download on the App Store